Location: Ailingen
(47.6833°N, 9.5000°E)
Time: 12:25:02
(UTC+00:00)

SJ 16-02 - Pass Details

Date: 18 November 2025
Orbit: 585 x 594 km, 75.0° (Epoch: 06 December)

Event Time Altitude Azimuth Distance (km) Brightness Sun altitude
Rises 18:16:39 0° 219° (SW) 2,825 5.3 -25.8°
Reaches altitude 10° 18:18:58 10° 227° (SW) 1,928 4.5 -26.2°
Maximum altitude 18:23:01 40° 297° (WNW) 888 2.5 -26.9°
Enters shadow 18:24:07 33° 333° (NNW) 1,003 2.6 -27.0°
